| time (UTC) | temp F | wind direction | speed MPH | gust MPH | rain 1hr in | rain 24hr in | rain mn in | humidity % | barometer mb |
| 20260507071628 | 65 | 40 | 4.0 | 10.0 | 0.00 | 0.00 | 0.00 | 81 | 990.0 |
| 20260507065914 | 62 | 306 | 1.0 | 4.0 | 0.00 | 0.21 | 0.14 | 87 | 1011.5 |
| 20260507061054 | 61 | 355 | 2.0 | 8.0 | 0.00 | 0.00 | 0.00 | 92 | 990.1 |
| 20260507050114 | 56 | 239 | 0.0 | 0.0 | 0.00 | 0.24 | 0.14 | 95 | 1010.9 |
| 20260507041510 | 60 | 313 | 1.0 | 5.0 | 0.00 | 0.00 | 0.00 | 92 | 989.6 |
| 20260507035916 | 56 | 239 | 0.0 | 0.0 | 0.00 | 0.24 | 0.14 | 94 | 1010.9 |
| 20260507021542 | 60 | 90 | 1.0 | 3.0 | 0.00 | 0.00 | 0.00 | 91 | 989.2 |
| 20260507015924 | 57 | 239 | 0.0 | 0.0 | 0.02 | 0.24 | 0.13 | 94 | 1010.9 |
| 20260507001501 | 59 | 332 | 0.0 | 2.0 | 0.00 | 0.00 | 0.00 | 89 | 990.1 |
| 20260506235930 | 58 | 207 | 0.0 | 3.0 | 0.02 | 0.15 | 0.02 | 92 | 1010.8 |
| 20260506221241 | 60 | 321 | 0.0 | 0.0 | 0.00 | 0.00 | 0.00 | 93 | 990.6 |
| 20260506215949 | 59 | 185 | 0.0 | 0.0 | 0.03 | 0.13 | 0.00 | 89 | 1010.7 |
| 20260506211130 | 61 | 346 | 1.0 | 5.0 | 0.00 | 0.00 | 0.00 | 93 | 990.4 |
| 20260506205929 | 59 | 191 | 1.0 | 4.0 | 0.02 | 0.09 | 0.09 | 89 | 1010.9 |
| 20260506191048 | 61 | 82 | 0.0 | 1.0 | 0.00 | 0.00 | 0.00 | 91 | 990.9 |
| 20260506185916 | 60 | 180 | 0.0 | 2.0 | 0.00 | 0.08 | 0.08 | 90 | 1010.5 |
| 20260506171244 | 63 | 50 | 2.0 | 4.0 | 0.00 | 0.00 | 0.00 | 87 | 990.5 |
| 20260506165928 | 63 | 186 | 2.0 | 6.0 | 0.00 | 0.06 | 0.06 | 79 | 1010.1 |
| 20260506155923 | 67 | 162 | 3.0 | 9.0 | 0.00 | 0.06 | 0.06 | 68 | 1010.1 |
| 20260506151522 | 65 | 138 | 1.0 | 5.0 | 0.00 | 0.00 | 0.00 | 83 | 990.7 |
| 20260506141101 | 67 | 122 | 3.0 | 7.0 | 0.00 | 0.00 | 0.00 | 80 | 990.9 |
| 20260506135926 | 69 | 177 | 8.0 | 14.0 | 0.00 | 0.06 | 0.06 | 65 | 1009.7 |
| 20260506121131 | 68 | 78 | 3.0 | 8.0 | 0.00 | 0.00 | 0.00 | 79 | 991.4 |
| 20260506115932 | 71 | 164 | 8.0 | 20.0 | 0.00 | 0.06 | 0.06 | 53 | 1010.4 |
| 20260506111024 | 67 | 154 | 3.0 | 8.0 | 0.00 | 0.00 | 0.00 | 79 | 991.4 |
| 20260506095926 | 68 | 174 | 2.0 | 8.0 | 0.00 | 0.06 | 0.06 | 70 | 1010.6 |
| 20260506091532 | 66 | 67 | 2.0 | 6.0 | 0.00 | 0.00 | 0.00 | 80 | 991.8 |
| 20260506081038 | 65 | 88 | 2.0 | 6.0 | 0.00 | 0.00 | 0.00 | 81 | 991.3 |